Погода в Костромской

Россия / Краснодарский край     44°30′53″N   40°35′28″E
темп.,
°C
ветер,
м/с
пор.,
м/с
влажн.,
%
обл.,
%
осадки,
мм/ч
давл.,
гПа
погр.,
м
25 мая, ср
ср2500:00+7юз229512 0.0 101737
03:00+6юз339313 0.0 101844
06:00+8ююз239034 0.0 101961
09:00+15зсз23502 0.0 10191304
12:00+17ссз45418 0.0 10192289
15:00+17сз565160 0.0 10191552
18:00+14сз366780 0.1 1020420
21:00+12ююз227596 0.3 102217
26 мая, чт
чт2600:00+11ююз227557 0.0 102218
03:00+8ююз2285100 0.0 102213
06:00+9ю228110 0.0 102358
09:00+16в11552 0.0 10221060
12:00+19св334623 0.0 10211948
15:00+19св334834 0.0 10201683
18:00+18св2363100 0.0 1019465
21:00+11юз118169 0.0 102110
27 мая, пт
пт2700:00+11юз2279100 0.0 102013
03:00+11ююз218198 0.0 102014
06:00+11ююз228395 0.0 102156
09:00+16зсз136292 0.0 1020544
12:00+21сз46375 0.0 10191542
15:00+20ссз55470 0.0 10191305
18:00+18с23651 0.0 1019726
21:00+12ююв22850 0.0 102013
28 мая, сб
сб2800:00+11ю22870 0.0 101921
03:00+10ююв22880 0.0 101824
06:00+12ююв23820 0.0 101876
09:00+19в23610 0.0 1016567
12:00+23всв32550 0.0 10151231
15:00+24св435534 0.0 10141549
18:00+22св46700 0.0 1014534
21:00+17вюв23910 0.0 101533
29 мая, вс
вс2900:00+15ююв22900 0.0 101326
03:00+14ююз22880 0.0 101416
06:00+15ююз22760 0.0 101436
09:00+23сз22550 0.0 1014493
12:00+26с32460 0.0 10141347
15:00+26ссв32500 0.0 10141322
18:00+24св24650 0.0 1014397
21:00+18вюв22830 0.0 101611